YMA7608 FBSK-FQMA

Flight info

Callsign YMA7608
Flight time 1h 0m
Altitude 31000
Route FBSK UDBUL UZ10 PEDIL UQ19 AVAGO JSV EXOBI UT122 ORNAD FQMA
Aircraft B738/M-VGDW/C

Departure

Time 2026-04-25 09:04
Airport Sir Seretse Khama International Airport (FBSK)

Arrival

Time 2026-04-25 10:04
Airport Maputo Airport (FQMA)
Time Latitude Longitude Altitude Speed Heading
2026-04-25 07:23 -24.55618 25.92393 3317 ft 0 kts 152°
2026-04-25 08:55 -24.55622 25.92396 3317 ft 2 kts 156°
2026-04-25 08:56 -24.55615 25.92373 3317 ft 10 kts 327°
2026-04-25 08:56 -24.55581 25.92310 3316 ft 10 kts 251°
2026-04-25 08:56 -24.55615 25.92239 3315 ft 10 kts 242°
2026-04-25 08:56 -24.55650 25.92170 3315 ft 10 kts 240°
2026-04-25 08:57 -24.55674 25.92101 3313 ft 9 kts 294°
2026-04-25 08:57 -24.55635 25.92047 3312 ft 10 kts 263°
2026-04-25 08:57 -24.55663 25.91977 3311 ft 10 kts 241°
2026-04-25 08:57 -24.55699 25.91904 3310 ft 11 kts 242°
2026-04-25 08:58 -24.55735 25.91831 3310 ft 10 kts 241°
2026-04-25 08:58 -24.55770 25.91763 3309 ft 10 kts 241°
2026-04-25 08:58 -24.55803 25.91696 3308 ft 9 kts 242°
2026-04-25 08:58 -24.55834 25.91631 3308 ft 8 kts 241°
2026-04-25 08:59 -24.55861 25.91578 3309 ft 7 kts 240°
2026-04-25 08:59 -24.55880 25.91535 3309 ft 5 kts 255°
2026-04-25 08:59 -24.55878 25.91496 3309 ft 5 kts 300°
2026-04-25 08:59 -24.55845 25.91468 3309 ft 7 kts 332°
2026-04-25 09:00 -24.55830 25.91460 3308 ft 0 kts 332°
2026-04-25 09:02 -24.55819 25.91454 3308 ft 4 kts 332°
2026-04-25 09:02 -24.55776 25.91428 3307 ft 7 kts 331°
2026-04-25 09:03 -24.55728 25.91438 3306 ft 8 kts 49°
2026-04-25 09:03 -24.55643 25.91602 3305 ft 63 kts 62°
2026-04-25 09:03 -24.55275 25.92344 3314 ft 154 kts 59°
2026-04-25 09:03 -24.54737 25.93565 3870 ft 176 kts 66°
2026-04-25 09:04 -24.54134 25.94766 4400 ft 201 kts 65°
2026-04-25 09:04 -24.53861 25.96398 5022 ft 231 kts 92°
2026-04-25 09:04 -24.54463 25.98062 5600 ft 245 kts 126°
2026-04-25 09:04 -24.55833 25.99189 6181 ft 262 kts 152°
2026-04-25 09:05 -24.57609 26.00034 6838 ft 294 kts 154°
2026-04-25 09:05 -24.59507 26.00939 7544 ft 297 kts 155°
2026-04-25 09:05 -24.61415 26.01838 8244 ft 298 kts 155°
2026-04-25 09:05 -24.63309 26.02759 8939 ft 300 kts 155°
2026-04-25 09:06 -24.65217 26.03681 9633 ft 303 kts 156°
2026-04-25 09:06 -24.67174 26.04638 10341 ft 305 kts 156°
2026-04-25 09:06 -24.69156 26.05601 11058 ft 324 kts 157°
2026-04-25 09:06 -24.71297 26.06634 11777 ft 350 kts 157°
2026-04-25 09:07 -24.73577 26.07744 12482 ft 372 kts 157°
2026-04-25 09:07 -24.75974 26.08921 13173 ft 378 kts 157°
2026-04-25 09:07 -24.78377 26.10171 13828 ft 380 kts 155°
2026-04-25 09:07 -24.80605 26.11769 14471 ft 384 kts 143°
2026-04-25 09:08 -24.82708 26.13578 15102 ft 388 kts 142°
2026-04-25 09:08 -24.84847 26.15457 15720 ft 392 kts 142°
2026-04-25 09:08 -24.86984 26.17335 16312 ft 396 kts 142°
2026-04-25 09:08 -24.89135 26.19228 16893 ft 398 kts 142°
2026-04-25 09:09 -24.91291 26.21135 17466 ft 401 kts 142°
2026-04-25 09:09 -24.93475 26.23071 18037 ft 403 kts 142°
2026-04-25 09:09 -24.95666 26.25022 18600 ft 406 kts 142°
2026-04-25 09:09 -24.97889 26.26958 19165 ft 409 kts 143°
2026-04-25 09:10 -25.00106 26.28909 19723 ft 411 kts 143°
2026-04-25 09:10 -25.02356 26.30907 20271 ft 414 kts 143°
2026-04-25 09:10 -25.04588 26.32900 20815 ft 416 kts 144°
2026-04-25 09:10 -25.06885 26.34902 21361 ft 419 kts 144°
2026-04-25 09:11 -25.11473 26.38923 22413 ft 425 kts 143°
2026-04-25 09:11 -25.13777 26.40954 22934 ft 428 kts 143°
2026-04-25 09:11 -25.16111 26.43041 23441 ft 430 kts 143°
2026-04-25 09:12 -25.18416 26.45109 23935 ft 433 kts 143°
2026-04-25 09:12 -25.20724 26.47252 24420 ft 436 kts 142°
2026-04-25 09:12 -25.23142 26.49328 24912 ft 438 kts 146°
2026-04-25 09:12 -25.25569 26.51345 25409 ft 441 kts 146°
2026-04-25 09:13 -25.28042 26.53402 25888 ft 446 kts 145°
2026-04-25 09:13 -25.30482 26.55508 26348 ft 448 kts 146°
2026-04-25 09:13 -25.32950 26.57593 26837 ft 452 kts 146°
2026-04-25 09:13 -25.35479 26.59727 27305 ft 454 kts 146°
2026-04-25 09:14 -25.37964 26.61846 27748 ft 457 kts 146°
2026-04-25 09:14 -25.40485 26.64020 28201 ft 460 kts 146°
2026-04-25 09:14 -25.43039 26.66220 28685 ft 463 kts 146°
2026-04-25 09:14 -25.45585 26.68421 29100 ft 466 kts 146°
2026-04-25 09:15 -25.48161 26.70653 29526 ft 470 kts 146°
2026-04-25 09:15 -25.50767 26.72868 29931 ft 471 kts 147°
2026-04-25 09:15 -25.53341 26.75066 30318 ft 473 kts 147°
2026-04-25 09:15 -25.55961 26.77307 30733 ft 476 kts 147°
2026-04-25 09:16 -25.58600 26.79558 31128 ft 479 kts 147°
2026-04-25 09:16 -25.61241 26.81827 31493 ft 481 kts 147°
2026-04-25 09:16 -25.63875 26.84110 31851 ft 484 kts 147°
2026-04-25 09:16 -25.66230 26.86811 32122 ft 500 kts 128°
2026-04-25 09:17 -25.68358 26.94270 32308 ft 521 kts 92°
2026-04-25 09:17 -25.68305 26.98252 32347 ft 513 kts 92°
2026-04-25 09:18 -25.68484 27.03792 31929 ft 521 kts 95°
2026-04-25 09:18 -25.68711 27.07825 31314 ft 523 kts 96°
2026-04-25 09:18 -25.68991 27.11793 31356 ft 506 kts 97°
2026-04-25 09:19 -25.69676 27.19579 31325 ft 510 kts 98°
2026-04-25 09:19 -25.70428 27.27430 31306 ft 509 kts 98°
2026-04-25 09:20 -25.71137 27.34792 31296 ft 508 kts 98°
2026-04-25 09:20 -25.71825 27.42162 31311 ft 509 kts 95°
2026-04-25 09:21 -25.71897 27.49988 31306 ft 511 kts 92°
2026-04-25 09:21 -25.71925 27.57860 31331 ft 512 kts 91°
2026-04-25 09:22 -25.71878 27.65736 31329 ft 510 kts 91°
2026-04-25 09:22 -25.71831 27.73541 31327 ft 510 kts 91°
2026-04-25 09:23 -25.71780 27.81382 31326 ft 509 kts 91°
2026-04-25 09:23 -25.71718 27.89216 31353 ft 510 kts 91°
2026-04-25 09:24 -25.71666 27.97081 31365 ft 508 kts 91°
2026-04-25 09:24 -25.71600 28.04896 31353 ft 509 kts 90°
2026-04-25 09:25 -25.71446 28.12700 31342 ft 509 kts 90°
2026-04-25 09:25 -25.71300 28.20546 31349 ft 509 kts 90°
2026-04-25 09:26 -25.71151 28.28375 31350 ft 508 kts 90°
2026-04-25 09:26 -25.71000 28.36161 31333 ft 509 kts 90°
2026-04-25 09:27 -25.70783 28.43664 31335 ft 507 kts 92°
2026-04-25 09:27 -25.71438 28.47440 31325 ft 501 kts 114°
2026-04-25 09:27 -25.73047 28.50858 31340 ft 499 kts 123°
2026-04-25 09:28 -25.76139 28.57305 31311 ft 503 kts 109°
2026-04-25 09:28 -25.77329 28.64956 31356 ft 506 kts 100°
2026-04-25 09:29 -25.78363 28.72636 31345 ft 506 kts 99°
2026-04-25 09:29 -25.79387 28.80369 31313 ft 506 kts 99°
2026-04-25 09:30 -25.80423 28.88064 31347 ft 506 kts 99°
2026-04-25 09:30 -25.81434 28.95809 31341 ft 507 kts 99°
2026-04-25 09:31 -25.82448 29.03502 31335 ft 505 kts 99°
2026-04-25 09:31 -25.83476 29.11209 31335 ft 505 kts 99°
2026-04-25 09:32 -25.84509 29.18917 31335 ft 506 kts 99°
2026-04-25 09:32 -25.85536 29.26619 31339 ft 506 kts 99°
2026-04-25 09:33 -25.86547 29.34316 31348 ft 505 kts 99°
2026-04-25 09:33 -25.87554 29.42024 31353 ft 505 kts 99°
2026-04-25 09:34 -25.88491 29.49795 31347 ft 507 kts 98°
2026-04-25 09:34 -25.89395 29.57555 31349 ft 507 kts 98°
2026-04-25 09:35 -25.90295 29.65316 31342 ft 507 kts 98°
2026-04-25 09:35 -25.91201 29.73084 31344 ft 508 kts 98°
2026-04-25 09:36 -25.92103 29.80804 31336 ft 508 kts 98°
2026-04-25 09:36 -25.93009 29.88627 31344 ft 508 kts 98°
2026-04-25 09:37 -25.93895 29.96391 30932 ft 514 kts 97°
2026-04-25 09:37 -25.94315 30.00315 30322 ft 511 kts 97°
2026-04-25 09:37 -25.94739 30.04201 29701 ft 505 kts 97°
2026-04-25 09:37 -25.95128 30.08025 29026 ft 502 kts 96°
2026-04-25 09:38 -25.95502 30.11910 28295 ft 505 kts 96°
2026-04-25 09:38 -25.95868 30.15767 27604 ft 506 kts 96°
2026-04-25 09:38 -25.96235 30.19637 26883 ft 508 kts 96°
2026-04-25 09:38 -25.96604 30.23576 26186 ft 508 kts 96°
2026-04-25 09:39 -25.96961 30.27466 25481 ft 508 kts 96°
2026-04-25 09:39 -25.97312 30.31335 24800 ft 511 kts 96°
2026-04-25 09:39 -25.97664 30.35249 24100 ft 511 kts 96°
2026-04-25 09:40 -25.98322 30.43174 22690 ft 514 kts 95°
2026-04-25 09:40 -25.98609 30.47077 22010 ft 505 kts 95°
2026-04-25 09:40 -25.98860 30.50487 21403 ft 501 kts 95°
2026-04-25 09:40 -25.98883 30.54338 20705 ft 504 kts 87°
2026-04-25 09:41 -25.98767 30.58224 20179 ft 496 kts 88°
2026-04-25 09:41 -25.98646 30.61990 20271 ft 472 kts 88°
2026-04-25 09:41 -25.98534 30.65417 20252 ft 418 kts 87°
2026-04-25 09:41 -25.98432 30.68605 20275 ft 410 kts 87°
2026-04-25 09:42 -25.98332 30.71809 20276 ft 420 kts 87°
2026-04-25 09:42 -25.98233 30.75050 20265 ft 423 kts 87°
2026-04-25 09:42 -25.98132 30.78348 20260 ft 422 kts 87°
2026-04-25 09:42 -25.98035 30.81588 19986 ft 426 kts 87°
2026-04-25 09:43 -25.97937 30.84845 19093 ft 420 kts 87°
2026-04-25 09:43 -25.97814 30.88038 18270 ft 409 kts 86°
2026-04-25 09:43 -25.97680 30.91174 17543 ft 405 kts 86°
2026-04-25 09:43 -25.97550 30.94288 16817 ft 401 kts 86°
2026-04-25 09:44 -25.97418 30.97330 16095 ft 395 kts 86°
2026-04-25 09:44 -25.97288 31.00366 15378 ft 390 kts 86°
2026-04-25 09:44 -25.97162 31.03317 14671 ft 385 kts 86°
2026-04-25 09:44 -25.97037 31.06262 13948 ft 380 kts 86°
2026-04-25 09:45 -25.96913 31.09160 13231 ft 375 kts 86°
2026-04-25 09:45 -25.96787 31.12043 12499 ft 371 kts 86°
2026-04-25 09:45 -25.96665 31.14740 11807 ft 367 kts 86°
2026-04-25 09:45 -25.96541 31.17432 11294 ft 361 kts 86°
2026-04-25 09:46 -25.96419 31.20208 11238 ft 362 kts 86°
2026-04-25 09:46 -25.96297 31.23003 11220 ft 364 kts 86°
2026-04-25 09:46 -25.96174 31.25821 11221 ft 364 kts 86°
2026-04-25 09:46 -25.96038 31.28631 11208 ft 364 kts 85°
2026-04-25 09:47 -25.95898 31.31443 11197 ft 364 kts 86°
2026-04-25 09:47 -25.95737 31.34253 11192 ft 364 kts 85°
2026-04-25 09:47 -25.95572 31.37048 11224 ft 365 kts 85°
2026-04-25 09:47 -25.95426 31.39552 11193 ft 365 kts 85°
2026-04-25 09:48 -25.95263 31.42367 11176 ft 366 kts 85°
2026-04-25 09:48 -25.95098 31.45180 11155 ft 366 kts 85°
2026-04-25 09:48 -25.94935 31.48002 11151 ft 366 kts 85°
2026-04-25 09:48 -25.94772 31.50816 11158 ft 367 kts 85°
2026-04-25 09:49 -25.94607 31.53671 11158 ft 367 kts 85°
2026-04-25 09:49 -25.94423 31.56487 11139 ft 366 kts 85°
2026-04-25 09:49 -25.94213 31.59302 11179 ft 367 kts 85°
2026-04-25 09:49 -25.94009 31.62122 11356 ft 369 kts 83°
2026-04-25 09:50 -25.93777 31.64763 11355 ft 367 kts 84°
2026-04-25 09:50 -25.93566 31.67588 11344 ft 366 kts 84°
2026-04-25 09:50 -25.93355 31.70392 11325 ft 365 kts 83°
2026-04-25 09:50 -25.93106 31.73192 11338 ft 365 kts 83°
2026-04-25 09:51 -25.92798 31.75999 11339 ft 366 kts 83°
2026-04-25 09:51 -25.92674 31.78801 11367 ft 367 kts 86°
2026-04-25 09:51 -25.92556 31.81622 11370 ft 366 kts 86°
2026-04-25 09:51 -25.92438 31.84473 11375 ft 366 kts 86°
2026-04-25 09:52 -25.92307 31.87303 11424 ft 367 kts 85°
2026-04-25 09:52 -25.92154 31.90122 11433 ft 367 kts 85°
2026-04-25 09:52 -25.91989 31.92962 11430 ft 368 kts 84°
2026-04-25 09:52 -25.92236 31.95771 11416 ft 370 kts 109°
2026-04-25 09:53 -25.93585 31.98165 11437 ft 369 kts 136°
2026-04-25 09:53 -25.95696 31.99759 11471 ft 366 kts 153°
2026-04-25 09:53 -25.97946 32.01134 11485 ft 366 kts 153°
2026-04-25 09:53 -26.00161 32.02489 11500 ft 366 kts 152°
2026-04-25 09:54 -26.02391 32.03905 11491 ft 366 kts 152°
2026-04-25 09:54 -26.04622 32.05317 11467 ft 366 kts 152°
2026-04-25 09:54 -26.06840 32.06762 11023 ft 366 kts 151°
2026-04-25 09:54 -26.08975 32.08165 10645 ft 338 kts 151°
2026-04-25 09:55 -26.10913 32.09472 10353 ft 310 kts 148°
2026-04-25 09:55 -26.12351 32.11177 10058 ft 306 kts 116°
2026-04-25 09:55 -26.12930 32.13479 9729 ft 306 kts 100°
2026-04-25 09:55 -26.13313 32.15785 9410 ft 304 kts 100°
2026-04-25 09:56 -26.13694 32.18101 9069 ft 304 kts 100°
2026-04-25 09:56 -26.14075 32.20428 8750 ft 301 kts 100°
2026-04-25 09:56 -26.14443 32.22698 8391 ft 296 kts 100°
2026-04-25 09:56 -26.14801 32.24912 8100 ft 287 kts 100°
2026-04-25 09:57 -26.15152 32.27083 7758 ft 282 kts 100°
2026-04-25 09:57 -26.15491 32.29194 7437 ft 275 kts 100°
2026-04-25 09:57 -26.15825 32.31285 7128 ft 273 kts 99°
2026-04-25 09:57 -26.16146 32.33308 6836 ft 265 kts 100°
2026-04-25 09:58 -26.16468 32.35325 6495 ft 261 kts 99°
2026-04-25 09:58 -26.16757 32.37302 6192 ft 256 kts 99°
2026-04-25 09:58 -26.17038 32.39267 5907 ft 253 kts 96°
2026-04-25 09:58 -26.16693 32.41123 5479 ft 242 kts 55°
2026-04-25 09:59 -26.15471 32.42297 5299 ft 232 kts 31°
2026-04-25 09:59 -26.14089 32.43261 5052 ft 232 kts 30°
2026-04-25 09:59 -26.12739 32.44181 4778 ft 224 kts 28°
2026-04-25 09:59 -26.11388 32.45077 4507 ft 223 kts 29°
2026-04-25 10:00 -26.10071 32.45943 4240 ft 216 kts 27°
2026-04-25 10:00 -26.08764 32.46779 3989 ft 215 kts 28°
2026-04-25 10:00 -26.07475 32.47602 3735 ft 206 kts 28°
2026-04-25 10:00 -26.06230 32.48394 3473 ft 204 kts 28°
2026-04-25 10:01 -26.05019 32.49163 3224 ft 196 kts 28°
2026-04-25 10:01 -26.03849 32.49908 2966 ft 189 kts 28°
2026-04-25 10:01 -26.02720 32.50632 2715 ft 182 kts 28°
2026-04-25 10:01 -26.01613 32.51318 2459 ft 175 kts 27°
2026-04-25 10:02 -26.00565 32.51962 2237 ft 170 kts 27°
2026-04-25 10:02 -25.99545 32.52582 1979 ft 163 kts 27°
2026-04-25 10:02 -25.98557 32.53196 1746 ft 158 kts 28°
2026-04-25 10:02 -25.97625 32.53787 1538 ft 152 kts 28°
2026-04-25 10:03 -25.96705 32.54370 1277 ft 148 kts 28°
2026-04-25 10:03 -25.95802 32.54939 1044 ft 145 kts 28°
2026-04-25 10:03 -25.94928 32.55487 796 ft 142 kts 28°
2026-04-25 10:03 -25.94072 32.56023 568 ft 143 kts 28°
2026-04-25 10:04 -25.93198 32.56563 336 ft 142 kts 28°
2026-04-25 10:04 -25.92327 32.57108 157 ft 142 kts 28°
2026-04-25 10:04 -25.91530 32.57590 135 ft 78 kts 29°
2026-04-25 10:04 -25.91244 32.57766 140 ft 38 kts 31°
2026-04-25 10:05 -25.91069 32.57873 142 ft 9 kts 28°
2026-04-25 10:05 -25.91020 32.57912 143 ft 8 kts 51°
2026-04-25 10:05 -25.91014 32.57967 143 ft 7 kts 126°
2026-04-25 10:05 -25.91061 32.57985 143 ft 8 kts 166°
2026-04-25 10:06 -25.91125 32.58005 143 ft 11 kts 163°
2026-04-25 10:06 -25.91212 32.57999 143 ft 14 kts 207°
2026-04-25 10:06 -25.91305 32.57941 142 ft 15 kts 210°
2026-04-25 10:06 -25.91406 32.57880 139 ft 17 kts 210°
2026-04-25 10:07 -25.91521 32.57809 137 ft 19 kts 210°
2026-04-25 10:07 -25.91642 32.57736 137 ft 19 kts 210°
2026-04-25 10:07 -25.91760 32.57660 136 ft 20 kts 211°
2026-04-25 10:07 -25.91895 32.57579 135 ft 23 kts 208°
2026-04-25 10:08 -25.92044 32.57489 136 ft 25 kts 208°
2026-04-25 10:08 -25.92171 32.57433 137 ft 10 kts 141°
2026-04-25 10:08 -25.92234 32.57488 137 ft 14 kts 185°
2026-04-25 10:08 -25.92285 32.57491 137 ft 3 kts 176°
2026-04-25 10:09 -25.92298 32.57492 137 ft 0 kts 176°